Hourly Data Report for September 19, 2020

GIMLI CLIMATE
MANITOBA
Current Station Operator: ECCC - MSC

50°38'00.000" N
97°03'00.000" W
230.10 m
5031042
71748
PGH

Download Data

Hourly Data (September 2020)
Hourly Data Report for September 19, 2020
TIME Temp Definition
°C
Dew Point Definition
°C
Rel Hum Definition
%
Wind Dir Definition
10's deg

Wind Spd Definition
km/h
Visibility Definition
km
Stn Press Definition
kPa
Hmdx Definition


Wind Chill Definition


Weather Definition


00:00 4.8 3.6 92 28 7   98.91     LegendNANA
01:00 4.4 3.4 93 28 5   98.94     LegendNANA
02:00 3.9 3.0 94 31 7   98.94     LegendNANA
03:00 2.9 2.1 94 32 11   98.94     LegendNANA
04:00 3.4 2.6 94 32 12   98.94     LegendNANA
05:00 3.3 2.5 94 33 5   98.95     LegendNANA
06:00 3.0 2.1 94   0   98.95     LegendNANA
07:00 1.1 0.4 95 24 3   99.03     LegendNANA
08:00 5.4 4.5 94 32 1   99.01     LegendNANA
09:00 9.1 7.5 90 17 2   99.04     LegendNANA
10:00 11.4 8.0 79 9 9   99.06     LegendNANA
11:00 12.6 7.6 71 10 9   99.03     LegendNANA
12:00 13.8 7.7 67 11 9   98.98     LegendNANA
13:00 16.3 7.6 56 12 9   98.93     LegendNANA
14:00 18.3 6.8 47 15 12   98.90     LegendNANA
15:00 18.8 8.7 52 11 10   98.86     LegendNANA
16:00 18.0 9.4 57 7 13   98.82     LegendNANA
17:00 17.2 9.6 61 7 12   98.80     LegendNANA
18:00 16.1 9.2 64 6 9   98.76     LegendNANA
19:00 13.9 9.9 77 7 8   98.76     LegendNANA
20:00 15.7 8.7 63 11 11   98.76     LegendNANA
21:00 15.2 8.5 64 11 10   98.78     LegendNANA
22:00 14.1 8.9 71 13 11   98.78     LegendNANA
23:00 13.7 8.8 72 13 13   98.76     LegendNANA

Notes on Data Quality.

Legend

  • E = Estimated
  • M = Missing
  • NA = Not Available*
  • [empty] = Indicates an unobserved value
Date modified: